This demonstration page uses our WeatherBlox Daily Observations layout. Learn more.

Left ArrowRight Arrow

30.21309, -93.2044

Hourly Observations for June 17, 2019

Temp ( °F °C ) Dew Point ( °F °C ) Humidity (%) Winds ( mph kmh ) Pressure ( in mb ) Visibility ( mi km ) Precip ( " mm )
12:15 am 00:15 Cloudy 70 21.1 69 20.5 96 96 N 7 11 29.98 1015 10 16 0.00 0.00
12:35 am 00:35 Cloudy 70 20.9 69 20.3 96 96 NNE 5 7 29.98 1015 10 16 0.00 0.00
12:55 am 00:55 Mostly Cloudy with Nearby Thunderstorms 70 21 69 20.5 97 97 NE 6 9 29.95 1014 7 11 0.04 1.02
1:15 am 01:15 Mostly Cloudy 70 21 69 20.3 96 96 ENE 8 13 29.94 1014 10 16 0.02 0.51
1:35 am 01:35 Mostly Cloudy 70 21 69 20.3 96 96 NE 5 7 29.93 1014 10 16 0.05 1.27
1:55 am 01:55 Partly Cloudy 70 20.9 68 20.2 96 96 Calm 29.94 1014 10 16 0.07 1.78
2:15 am 02:15 Mostly Cloudy 70 21 69 20.5 97 97 N 5 7 29.93 1014 10 16 0.01 0.25
2:35 am 02:35 Mostly Cloudy 70 20.9 69 20.5 98 98 NNE 5 7 29.93 1014 10 16 0.03 0.76
2:55 am 02:55 Mostly Cloudy 69 20.7 69 20.3 98 98 N 5 7 29.92 1013 10 16 0.04 1.02
3:15 am 03:15 Partly Cloudy 69 20.6 69 20.3 98 98 N 3 6 29.92 1013 10 16 0.01 0.25
3:35 am 03:35 Mostly Cloudy 70 21 69 20.6 98 98 NW 6 9 29.94 1014 10 16 0.02 0.51
3:55 am 03:55 Cloudy 70 21.1 69 20.8 98 98 W 13 20 29.95 1014 10 16 0.04 1.02
4:15 am 04:15 Cloudy 69 20.7 68 20.1 96 96 WNW 17 28 29.95 1014 5 8 0.01 0.25
4:35 am 04:35 Cloudy 69 20.6 68 20.2 98 98 WNW 9 15 29.97 1015 7 11 0.02 0.51
4:55 am 04:55 Cloudy 69 20.5 68 20 97 97 NW 9 15 29.96 1015 7 11 0.04 1.02
5:15 am 05:15 Cloudy 68 20.2 68 19.8 98 98 NNW 3 6 29.95 1014 7 11 0.02 0.51
5:35 am 05:35 Mostly Cloudy 68 20.2 67 19.7 97 97 Calm 29.96 1015 10 16 0.05 1.27
6:00 am 06:00 Mostly Cloudy with Light Rain 68 20 68 20 100 100 Calm 29.94 1014 6 10 0.00 0.00
6:55 am 06:55 Mostly Cloudy with Light Rain 70 21 68 20 94 94 ESE 9 15 29.88 1012 6 10 0.00 0.00
7:55 am 07:55 Mostly Cloudy 73 23 72 22 94 94 SE 20 31 29.88 1012 10 16 0.00 0.00
8:52 am 08:52 Mostly Cloudy 75 24 72 22 89 89 SE 12 19 29.90 1013 10 16 0.00 0.00
9:26 am 09:26 Mostly Cloudy 79 26 72 22 79 79 SSE 13 20 29.91 1013 10 16 0.00 0.00
9:50 am 09:50 Mostly Cloudy 81 27 73 23 79 79 SSE 16 26 29.92 1013 10 16 0.00 0.00
10:55 am 10:55 Mostly Cloudy 81 27 73 23 79 79 SSE 17 28 29.93 1014 10 16 0.00 0.00
11:55 am 11:55 Mostly Cloudy 84 29 72 22 66 66 S 14 22 29.94 1014 10 16 0.00 0.00
12:50 pm 12:50 Partly Cloudy 84 29 73 23 70 70 SSE 12 19 29.94 1014 10 16 0.00 0.00
1:55 pm 13:55 Mostly Cloudy 84 29 73 23 70 70 S 12 19 29.93 1014 10 16 0.00 0.00
2:50 pm 14:50 Partly Cloudy 84 29 72 22 66 66 S 8 13 29.90 1013 10 16 0.00 0.00
4:50 pm 16:50 Mostly Cloudy 86 30 70 21 59 59 SW 7 11 29.87 1011 10 16 0.00 0.00
5:50 pm 17:50 Mostly Cloudy 82 28 72 22 70 70 SSE 9 15 29.86 1011 10 16 0.00 0.00
6:50 pm 18:50 Mostly Cloudy 82 28 72 22 70 70 SSE 8 13 29.87 1011 10 16 0.00 0.00
7:50 pm 19:50 Mostly Cloudy 81 27 73 23 79 79 ESE 7 11 29.90 1013 10 16 0.00 0.00
8:50 pm 20:50 Mostly Cloudy 79 26 73 23 84 84 Calm 29.91 1013 10 16 0.00 0.00
9:50 pm 21:50 Partly Cloudy 77 25 75 24 94 94 Calm 29.91 1013 10 16 0.00 0.00
10:15 pm 22:15 Clear 76 24.7 75 24 96 96 Calm 29.92 1013 10 16 0.00 0.00
10:35 pm 22:35 Partly Cloudy 76 24.5 75 23.9 96 96 Calm 29.92 1013 10 16 0.00 0.00
10:55 pm 22:55 Clear 76 24.3 75 23.7 96 96 Calm 29.92 1013 10 16 0.00 0.00
11:15 pm 23:15 Clear 75 24 74 23.6 98 98 Calm 29.91 1013 10 16 0.00 0.00
11:35 pm 23:35 Clear 75 24.1 75 23.7 98 98 Calm 29.91 1013 10 16 0.00 0.00
11:55 pm 23:55 Clear 75 23.9 74 23.5 98 98 Calm 29.91 1013 10 16 0.00 0.00

Powered by AerisWeather